Location: Newark
(47.0347°N, 8.5803°E)
Time: 23:17:39
(UTC+00:00)

Envisat - Visible Passes

Search period start: 21 November 2019 00:00
Search period end: 01 December 2019 00:00
Orbit: 764 x 766 km, 98.1° (Epoch: 21 November)

Date Brightness Start Highest point End Pass type
(mag) Time Alt. Az. Time Alt. Az. Time Alt. Az.
21 Nov 6.3 04:49:29 10° ENE 04:51:14 12° E 04:53:00 10° ESE visible
21 Nov 3.7 17:43:34 10° S 17:48:32 55° W 17:53:32 10° NNW visible
22 Nov 4.6 05:49:20 10° NNE 05:54:09 41° E 05:58:56 10° SSE visible
22 Nov 2.9 17:06:41 10° SSE 17:11:44 72° ENE 17:16:49 10° N visible
22 Nov 5.8 18:48:13 10° SW 18:51:18 16° W 18:54:25 10° NW visible
23 Nov 5.8 05:13:22 10° NE 05:17:05 20° E 05:20:47 10° SE visible
23 Nov 3.5 16:30:33 10° SE 16:35:08 36° ENE 16:39:45 10° N visible
23 Nov 4.7 18:09:37 10° SSW 18:14:10 33° W 18:18:45 10° NNW visible
24 Nov 3.3 17:32:10 10° S 17:37:13 69° WSW 17:42:19 10° NNW visible
25 Nov 5.0 05:38:13 10° NNE 05:42:49 33° E 05:47:22 10° SSE visible
25 Nov 3.0 16:55:31 10° SSE 17:00:29 58° ENE 17:05:30 10° N visible
25 Nov 5.5 18:36:13 10° SW 18:39:54 20° W 18:43:37 10° NW visible
26 Nov 6.0 05:02:33 10° NE 05:05:40 16° E 05:08:47 10° SE visible
26 Nov 3.8 16:19:36 10° ESE 16:23:56 29° ENE 16:28:18 10° N visible
26 Nov 4.3 17:58:03 10° SSW 18:02:49 41° W 18:07:38 10° NNW visible
27 Nov 3.9 06:03:26 10° NNE 06:08:27 55° E 06:13:26 10° S visible
27 Nov 3.0 17:20:52 10° SSE 17:25:56 85° WSW 17:31:03 10° NNW visible
27 Nov 6.1 19:04:00 10° WSW 19:05:44 12° W 19:07:29 10° WNW visible
28 Nov 5.3 05:27:09 10° NE 05:31:27 27° E 05:35:43 10° SSE visible
28 Nov 3.2 16:44:25 10° SE 16:49:16 47° ENE 16:54:08 10° N visible
28 Nov 5.2 18:24:23 10° SSW 18:28:31 25° W 18:32:40 10° NW visible
29 Nov 6.2 04:51:59 10° ENE 04:54:15 13° E 04:56:29 10° ESE visible
29 Nov 4.0 16:08:44 10° ESE 16:12:46 24° ENE 16:16:50 10° N visible
29 Nov 3.9 17:46:34 10° S 17:51:29 51° W 17:56:27 10° NNW visible
30 Nov 4.3 05:52:15 10° NNE 05:57:08 44° E 06:01:58 10° S visible
30 Nov 2.9 17:09:36 10° SSE 17:14:40 78° ENE 17:19:47 10° N visible
30 Nov 5.9 18:51:30 10° WSW 18:54:18 15° W 18:57:07 10° NW visible
